EWG8MW EDDH-EPGD

Flight info

Callsign EWG8MW
Flight time N/A
Altitude 35000
Route RAMAR6G/33 RAMAR L23 GEVNI DCT BINKA DCT LUXAL L730 KOSEX
Aircraft A320/M-SDE3FGHIRWY/LB1

Departure

Time N/A
Airport Hamburg Helmut Schmidt Airport (EDDH)

Arrival

Time 2026-04-30 18:13
Airport Gdańsk Lech Wałęsa Airport (EPGD)
Time Latitude Longitude Altitude Speed Heading
2026-04-30 17:39 53.76100 13.99730 35429 ft 428 kts 84°
2026-04-30 17:42 53.77663 14.49652 35424 ft 426 kts 77°
2026-04-30 17:43 53.79538 14.74481 35422 ft 426 kts 77°
2026-04-30 17:44 53.81728 15.04299 35430 ft 426 kts 77°
2026-04-30 17:47 53.84856 15.49044 35428 ft 425 kts 77°
2026-04-30 17:48 53.87178 15.83828 35427 ft 425 kts 78°
2026-04-30 17:49 53.88416 16.03320 33909 ft 408 kts 78°
2026-04-30 17:50 53.89688 16.23229 32828 ft 431 kts 78°
2026-04-30 17:51 53.90613 16.38423 32058 ft 433 kts 78°
2026-04-30 17:52 53.91992 16.53542 29124 ft 429 kts 66°
2026-04-30 17:53 53.99574 16.75073 23435 ft 429 kts 54°
2026-04-30 17:54 54.05905 16.91698 20065 ft 406 kts 54°
2026-04-30 17:55 54.10147 17.08846 16359 ft 399 kts 79°
2026-04-30 17:56 54.11192 17.27293 13390 ft 385 kts 80°
2026-04-30 17:57 54.11935 17.40757 11477 ft 367 kts 81°
2026-04-30 17:58 54.12562 17.52844 11098 ft 318 kts 79°
2026-04-30 17:59 54.13968 17.66474 10535 ft 273 kts 75°
2026-04-30 18:00 54.15303 17.79117 8997 ft 270 kts 75°
2026-04-30 18:00 54.16274 17.88488 7894 ft 267 kts 76°
2026-04-30 18:01 54.16923 17.94772 7497 ft 269 kts 76°
2026-04-30 18:02 54.17886 18.04200 7118 ft 269 kts 76°
2026-04-30 18:02 54.18730 18.12566 6778 ft 268 kts 76°
2026-04-30 18:03 54.19677 18.21973 6355 ft 268 kts 76°
2026-04-30 18:04 54.20615 18.31362 5967 ft 268 kts 77°
2026-04-30 18:05 54.21851 18.43863 5447 ft 266 kts 77°
2026-04-30 18:06 54.23071 18.56299 5008 ft 265 kts 77°
2026-04-30 18:07 54.24172 18.68152 4827 ft 233 kts 77°
2026-04-30 18:08 54.27220 18.73709 3779 ft 221 kts 27°
2026-04-30 18:09 54.31680 18.71096 3012 ft 194 kts 295°
2026-04-30 18:10 54.33644 18.63187 2307 ft 175 kts 294°
2026-04-30 18:11 54.35315 18.56477 1475 ft 131 kts 295°
2026-04-30 18:11 54.36374 18.52195 910 ft 129 kts 292°
2026-04-30 18:12 54.37417 18.48001 485 ft 112 kts 293°
2026-04-30 18:13 54.37835 18.46317 470 ft 54 kts 293°
2026-04-30 18:13 54.38146 18.45754 464 ft 8 kts 76°
2026-04-30 18:14 54.38109 18.45912 466 ft 10 kts 115°
2026-04-30 18:15 54.38190 18.46165 468 ft 5 kts 126°
2026-04-30 18:15 54.38141 18.46431 470 ft 2 kts 25°
2026-04-30 18:16 54.38162 18.46452 468 ft 0 kts 24°